Stations météo

Publicité
Leucate/Semaphore, France (7666): Température de l'air & dewpoint: 09.11.2019 16:00:00 - 15.11.2019 16:00:00 (CET)Leucate/Semaphore, France (7666): Vitesse du vent & gusts: 09.11.2019 16:00:00 - 15.11.2019 16:00:00 (CET)Leucate/Semaphore, France (7666): Direction du vent: 09.11.2019 16:00:00 - 15.11.2019 16:00:00 (CET)Leucate/Semaphore, France (7666): reduced air pressure: 09.11.2019 16:00:00 - 15.11.2019 16:00:00 (CET)Leucate/Semaphore, France (7666): visibility: 09.11.2019 16:00:00 - 15.11.2019 16:00:00 (CET)Leucate/Semaphore, France (7666): Quantités de précipitations: 09.11.2019 16:00:00 - 15.11.2019 16:00:00 (CET)
Date & Time tt [°C] td [°C] ff [km/h] ff [knt] fx [km/h] fx [knt] dd ppp [hPa] vv [km] rr [mm]
15.11.2019 16:00:00 10,6 5,1 15 8 34 19 E 999,3 - 0,0
15.11.2019 15:00:00 10,6 6,2 23 12 40 22 E 998,8 - 0,0
15.11.2019 14:00:00 10,1 5,7 26 14 48 26 ESE 999,1 - 0,0
15.11.2019 13:00:00 10,4 6,3 30 16 48 26 E 998,8 20 0,0
15.11.2019 12:00:00 10,0 6,0 20 11 34 18 E 1000,0 - 0,0
15.11.2019 11:00:00 9,1 5,3 9 5 24 13 N 1000,5 - 0,0
15.11.2019 10:00:00 7,1 4,6 15 8 23 12 NNW 1000,9 25 0,0
15.11.2019 09:00:00 5,6 2,2 8 5 12 7 NW 1000,9 - 0,0
15.11.2019 08:00:00 4,6 1,4 5 3 14 7 NW 1000,6 - 0,0
15.11.2019 07:00:00 6,2 1,3 5 3 13 7 NW 1000,2 15 0,0
15.11.2019 06:00:00 4,8 2,2 13 7 17 9 WSW 1000,2 - 0,0
15.11.2019 05:00:00 5,3 1,6 11 6 19 11 WSW 1000,2 - 0,0
15.11.2019 04:00:00 4,7 1,4 13 7 21 11 W 999,7 - 0,0
15.11.2019 03:00:00 5,3 1,8 16 9 21 12 W 999,6 - 0,0
15.11.2019 02:00:00 5,1 2,4 14 7 23 12 SW 999,1 - 0,0
15.11.2019 01:00:00 4,6 2,6 14 7 22 12 WSW 999,0 - 0,0
15.11.2019 00:00:00 5,9 2,4 9 5 16 8 SW 998,6 - 0,0
14.11.2019 23:00:00 5,6 2,4 10 5 18 10 NW 998,2 - 0,0
14.11.2019 22:00:00 5,6 2,2 8 4 15 8 W 998,1 - 0,0
14.11.2019 21:00:00 6,1 3,4 3 2 14 8 SW 997,4 - 0,0
14.11.2019 20:00:00 6,3 4,1 9 5 21 11 WNW 997,7 - 0,0
14.11.2019 19:00:00 6,4 4,1 13 7 24 13 WNW 998,0 18 0,2
14.11.2019 18:00:00 6,6 4,6 13 7 30 16 WNW 997,7 - 0,6
14.11.2019 17:00:00 6,8 4,1 17 9 38 21 NW 996,9 - 0,0
14.11.2019 16:00:00 7,1 3,7 22 12 41 22 NW 997,1 - 0,0
14.11.2019 15:00:00 7,6 3,6 19 10 43 23 NW 997,4 - 0,0
14.11.2019 14:00:00 7,7 5,2 16 9 35 19 NW 997,7 - 0,6
14.11.2019 13:00:00 8,4 3,4 12 7 38 21 NW 998,5 18 0,0
14.11.2019 12:00:00 8,1 2,7 22 12 48 26 NW 999,3 - 0,0
14.11.2019 11:00:00 7,6 2,5 27 15 60 33 NW 1000,0 - 0,0
14.11.2019 10:00:00 7,8 2,9 31 17 59 32 NW 1000,0 30 0,0
14.11.2019 09:00:00 8,4 4,0 30 16 61 33 NW 999,7 - 0,0
14.11.2019 08:00:00 7,8 3,5 20 11 46 25 NW 999,4 - 0,0
14.11.2019 07:00:00 7,5 4,1 24 13 44 24 NW 998,7 20 0,0
14.11.2019 06:00:00 12,9 6,7 22 12 52 28 S 998,3 - 0,0
14.11.2019 05:00:00 13,4 8,5 38 21 56 31 SE 999,1 - 0,0
14.11.2019 04:00:00 12,8 7,5 39 21 47 25 SSE 1001,1 20 0,0
14.11.2019 03:00:00 9,8 3,1 16 9 23 12 S 1003,0 - 0,0
14.11.2019 02:00:00 8,7 2,9 14 7 22 12 SW 1004,1 - 0,0
14.11.2019 01:00:00 8,1 2,5 13 7 23 12 SSW 1005,4 - 0,0
14.11.2019 00:00:00 7,4 3,1 18 10 20 11 SW 1006,5 - 0,0
13.11.2019 23:00:00 8,5 2,9 7 4 16 8 WSW 1007,2 - 0,0
13.11.2019 22:00:00 8,1 3,0 12 7 18 10 NW 1008,2 - 0,0
13.11.2019 21:00:00 8,5 2,1 6 3 11 6 WSW 1008,9 - 0,0
13.11.2019 20:00:00 8,2 2,0 5 3 30 16 WNW 1009,2 - 0,0
13.11.2019 19:00:00 9,0 2,8 13 7 28 15 NW 1009,2 15 0,0
13.11.2019 18:00:00 9,7 3,4 16 9 52 28 NW 1008,8 - 0,0
13.11.2019 17:00:00 10,8 3,6 26 14 57 31 NW 1007,8 - 0,0
13.11.2019 16:00:00 12,2 3,9 23 12 55 30 NW 1007,4 20 0,0
13.11.2019 15:00:00 12,8 4,0 23 12 54 29 NW 1006,9 - 0,0
13.11.2019 14:00:00 12,6 4,8 24 13 52 28 NW 1006,9 - 0,0
13.11.2019 13:00:00 12,2 5,4 19 10 50 27 NW 1007,1 20 0,0
13.11.2019 12:00:00 13,0 6,1 17 9 39 21 NW 1007,3 - 0,0
13.11.2019 11:00:00 12,3 6,3 21 11 43 23 NW 1007,0 - 0,0
13.11.2019 10:00:00 10,8 6,0 16 9 32 17 NW 1006,6 - 0,0
13.11.2019 09:00:00 10,1 6,1 16 9 29 16 WNW 1006,2 - 0,0
13.11.2019 08:00:00 9,4 5,9 16 9 31 17 NW 1005,6 - 0,0
13.11.2019 07:00:00 8,8 5,7 16 8 27 14 NW 1005,2 15 0,2
13.11.2019 06:00:00 9,4 6,5 18 10 29 16 WNW 1005,2 - 0,0
13.11.2019 05:00:00 9,6 6,3 16 9 29 16 NW 1005,0 - 0,0
13.11.2019 04:00:00 9,8 6,7 18 10 31 17 WNW 1005,1 20 0,0
13.11.2019 03:00:00 9,3 6,6 16 9 31 17 WNW 1004,8 - 0,0
13.11.2019 02:00:00 10,0 6,7 17 9 29 15 WNW 1005,0 - 0,0
13.11.2019 01:00:00 10,2 7,6 18 10 31 17 WNW 1005,3 - 0,0
13.11.2019 00:00:00 10,5 7,7 20 11 38 20 WNW 1005,9 - 0,2
12.11.2019 23:00:00 10,0 7,1 16 8 27 14 NW 1006,3 - 0,0
12.11.2019 22:00:00 10,0 7,9 16 9 37 20 NW 1006,7 15 0,0
12.11.2019 21:00:00 10,4 8,0 26 14 47 25 NW 1006,8 - 0,0
12.11.2019 20:00:00 10,0 7,9 19 10 37 20 NNW 1006,6 - 0,0
12.11.2019 19:00:00 10,1 7,5 20 11 53 29 NW 1007,2 15 0,2
12.11.2019 18:00:00 10,0 7,8 28 15 61 33 NW 1006,8 - 0,2
12.11.2019 17:00:00 11,6 7,7 29 15 68 37 NNW 1006,7 20 0,0
12.11.2019 16:00:00 13,3 6,2 25 13 61 33 NW 1006,5 20 0,0
12.11.2019 15:00:00 13,4 6,3 24 13 60 33 NW 1007,0 - 0,0
12.11.2019 14:00:00 13,6 5,5 24 13 63 34 NW 1007,6 - 0,0
12.11.2019 13:00:00 13,2 5,1 30 16 67 36 NW 1008,5 20 0,0
12.11.2019 12:00:00 14,0 5,6 28 15 61 33 NW 1009,6 - 0,0
12.11.2019 11:00:00 12,7 5,4 29 16 64 35 NW 1010,2 - 0,0
12.11.2019 10:00:00 11,8 5,2 18 10 56 30 NW 1010,9 - 0,0
12.11.2019 09:00:00 10,4 4,7 19 11 58 32 NW 1011,2 - 0,0
12.11.2019 08:00:00 9,2 5,0 23 13 58 31 NW 1010,9 - 0,0
12.11.2019 07:00:00 8,6 5,0 22 12 42 23 NW 1011,0 25 0,0
12.11.2019 06:00:00 8,3 4,7 17 9 36 19 NW 1011,6 - 0,0
12.11.2019 05:00:00 8,1 4,9 14 8 43 23 NW 1012,4 - 0,0
12.11.2019 04:00:00 8,9 4,9 22 12 44 24 NW 1012,2 20 0,0
12.11.2019 03:00:00 8,4 3,6 21 11 40 22 NW 1012,7 - 0,0
12.11.2019 02:00:00 8,9 4,1 16 9 41 22 NW 1013,6 - 0,0
12.11.2019 01:00:00 9,3 3,5 27 15 62 33 NW 1013,6 - 0,0
12.11.2019 00:00:00 9,4 2,7 31 17 84 45 NW 1013,1 - 0,0
11.11.2019 23:00:00 9,6 3,3 44 24 110 59 NW 1012,0 - 0,0
11.11.2019 22:00:00 10,2 2,5 53 28 110 60 NW 1009,8 - 0,0
11.11.2019 21:00:00 10,6 2,4 44 24 92 50 NW 1010,1 - 0,0
11.11.2019 20:00:00 11,4 6,7 17 9 56 31 NW 1011,1 - 0,0
11.11.2019 19:00:00 12,6 4,5 24 13 57 31 NW 1009,6 25 0,0
11.11.2019 18:00:00 11,9 4,6 11 6 46 25 NNW 1010,0 - 0,0
11.11.2019 17:00:00 12,9 4,6 24 13 50 27 NNW 1009,3 - 0,0
11.11.2019 16:00:00 14,1 3,8 20 11 48 26 NNW 1009,3 20 0,0
11.11.2019 15:00:00 14,4 3,8 22 12 50 27 NW 1009,4 - 0,0
11.11.2019 14:00:00 14,6 4,6 21 12 49 27 NW 1009,9 - 0,0
11.11.2019 13:00:00 14,1 4,1 21 11 51 27 NW 1010,5 20 0,0
11.11.2019 12:00:00 12,3 4,0 26 14 55 30 NW 1011,6 - 0,0
11.11.2019 11:00:00 10,6 3,6 26 14 51 27 NW 1012,8 - 0,0
11.11.2019 10:00:00 9,5 3,2 27 14 51 28 NW 1013,2 30 0,0
11.11.2019 09:00:00 8,7 3,1 26 14 51 27 NW 1013,1 - 0,0
11.11.2019 08:00:00 8,1 3,0 29 16 55 30 NW 1012,6 - 0,0
11.11.2019 07:00:00 7,9 3,5 26 14 57 31 NW 1013,0 25 0,0
11.11.2019 06:00:00 7,8 3,1 24 13 66 35 NW 1013,5 - 0,0
11.11.2019 05:00:00 7,7 3,2 30 16 56 30 NW 1013,0 - 0,0
11.11.2019 04:00:00 7,9 3,5 25 14 56 30 NW 1013,3 20 0,0
11.11.2019 03:00:00 8,1 3,2 25 13 61 33 NW 1014,0 - 0,0
11.11.2019 02:00:00 8,0 3,5 28 15 58 31 NW 1013,6 - 0,0
11.11.2019 01:00:00 8,0 3,8 26 14 59 32 NW 1013,9 - 0,0
11.11.2019 00:00:00 7,9 3,9 26 14 54 29 NW 1013,2 - 0,0
10.11.2019 23:00:00 8,1 3,9 27 15 54 29 NW 1013,6 - 0,0
10.11.2019 22:00:00 8,2 3,8 28 15 59 32 NW 1013,4 - 0,0
10.11.2019 21:00:00 8,5 3,3 27 15 55 30 NW 1012,9 - 0,0
10.11.2019 20:00:00 8,8 4,0 27 15 51 28 NW 1012,7 - 0,0
10.11.2019 19:00:00 8,9 3,5 22 12 44 24 NW 1012,7 - 0,0
10.11.2019 18:00:00 9,5 3,7 19 10 54 29 NW 1011,5 - 0,0
10.11.2019 17:00:00 11,0 3,8 22 12 58 31 NW 1010,3 - 0,0
10.11.2019 16:00:00 11,9 3,9 28 15 62 33 NW 1009,7 25 0,0
10.11.2019 15:00:00 12,1 3,1 30 16 64 35 NW 1009,3 - 0,0
10.11.2019 14:00:00 12,4 2,8 32 18 61 33 NW 1009,4 - 0,0
10.11.2019 13:00:00 12,0 4,0 28 15 61 33 NW 1009,8 25 0,0
10.11.2019 12:00:00 11,4 4,1 34 18 66 36 NNW 1010,4 - 0,0
10.11.2019 11:00:00 11,1 3,6 29 15 56 30 NW 1010,6 - 0,0
10.11.2019 10:00:00 9,4 3,4 23 12 56 30 NW 1010,7 25 0,0
10.11.2019 09:00:00 8,7 3,5 26 14 59 32 NW 1010,3 - 0,0
10.11.2019 08:00:00 8,6 3,4 28 15 53 29 NW 1010,2 - 0,0
10.11.2019 07:00:00 8,7 4,1 23 12 69 38 NW 1009,7 25 0,0
10.11.2019 06:00:00 8,9 4,3 26 14 59 32 NW 1009,6 - 0,0
10.11.2019 05:00:00 9,1 4,5 24 13 49 26 NW 1009,7 - 0,0
10.11.2019 04:00:00 8,7 4,9 26 14 54 29 WNW 1009,7 25 0,0
10.11.2019 03:00:00 9,6 5,4 29 16 62 34 WNW 1009,7 - 0,0
10.11.2019 02:00:00 9,8 5,6 31 17 63 34 WNW 1009,6 - 0,0
10.11.2019 01:00:00 11,0 6,9 22 12 43 23 WNW 1009,7 - 0,0
10.11.2019 00:00:00 10,5 8,1 12 6 23 12 W 1009,5 - 0,0
09.11.2019 23:00:00 10,0 7,8 9 5 18 10 SW 1009,5 - 0,2
09.11.2019 22:00:00 9,4 7,2 9 5 24 13 W 1010,0 - 0,4
09.11.2019 21:00:00 10,9 5,6 8 5 17 9 NW 1010,4 - 0,0
09.11.2019 20:00:00 11,2 4,9 11 6 18 10 N 1010,6 - 0,0
09.11.2019 19:00:00 10,5 4,8 16 8 23 12 NNW 1010,9 20 0,0
09.11.2019 18:00:00 11,4 5,0 18 10 30 16 NNW 1010,8 - 0,0
09.11.2019 17:00:00 11,6 5,0 16 9 31 17 NW 1011,1 - 0,0
09.11.2019 16:00:00 12,1 5,0 15 8 41 22 NW 1011,9 20 0,0

tt = Température de l'air
td = dewpoint
ff = Vitesse du vent
fx = gusts
dd = Direction du vent
ppp = reduced air pressure
vv = visibility
rr = Quantités de précipitations

stations d'obs. à proximité